Location: Dötzum
(52.0808°N, 9.8063°E)
Time: 06:30:34
(UTC+00:00)

Cosmos 371 Rocket - Pass Details

Date: 27 May 2022
Orbit: 684 x 697 km, 74.0° (Epoch: 26 June)

Event Time Altitude Azimuth Distance (km) Brightness Sun altitude
Exits shadow 00:06:54 27° 191° (S) 1,313 4.1 -15.9°
Maximum altitude 00:09:30 73° 112° (ESE) 730 3.3 -15.8°
Drops below altitude 10° 00:14:21 10° 28° (NNE) 2,159 7.1 -15.6°
Sets 00:16:40 0° 27° (NNE) 3,078 8.3 -15.5°
